• Join FlightAware (Why Join?)
  • Login
  • US Flag 
07:21PM EST


 

Airport Tracker/Info


-or-


 

Live Flight TrackerFlight Track Log ✈ SKP11 ✈ 25-Mar-2014 ✈ YTWB - YBBN / BNE

Flight Track Log - Related Links

Times and Time Zones

All times are in EDT time to prevent confusion due to time zone crossing. See the SKP11 flight status page for this flight to view local times or setup timezone preferences in your user account.

Time Position Orientation Groundspeed Altitude Reporting Facility
EDT Latitude Longitude Course Direction KTS MPH feet Rate Location/Type
03:17AM -27.5135 151.9591 51° Northeast 130 150 4,900  Level Aus ATC (RADAR)
03:18AM -27.4920 151.9886 51° Northeast 137 158 6,100 1,333 Climbing Aus ATC (RADAR)
03:19AM -27.4800 152.0103 58° Northeast 141 162 6,900 1,371 Climbing Aus ATC (RADAR)
03:20AM -27.4536 152.0557 57° Northeast 151 174 8,500 1,091 Climbing Aus ATC (RADAR)
03:21AM -27.4381 152.0827 57° Northeast 156 180 8,900 185 Climbing Aus ATC (RADAR)
03:22AM -27.3958 152.1500 55° Northeast 174 200 8,900  Level Aus ATC (RADAR)
03:23AM -27.3647 152.1995 55° Northeast 179 206 8,900  Level Aus ATC (RADAR)
03:24AM -27.3509 152.2224 56° Northeast 178 205 8,900  Level Aus ATC (RADAR)
03:25AM -27.3223 152.2689 55° Northeast 182 209 8,900  Level Aus ATC (RADAR)
03:25AM -27.3103 152.2882 55° Northeast 181 208 8,900  Level Aus ATC (RADAR)
03:26AM -27.2959 152.3114 55° Northeast 181 208 8,900  Level Aus ATC (RADAR)
03:27AM -27.2510 152.3838 55° Northeast 176 203 8,900  Level Aus ATC (RADAR)
03:28AM -27.2339 152.4329 69° East 182 209 8,900  Level Aus ATC (RADAR)
03:29AM -27.2597 152.4385 169° South 188 216 8,900  Level Aus ATC (RADAR)
03:30AM -27.2746 152.3719 256° West 211 243 8,900  Level Aus ATC (RADAR)
03:30AM -27.2673 152.3407 285° West 204 235 8,900  Level Aus ATC (RADAR)
03:31AM -27.2507 152.2794 287° West 202 232 8,900  Level Aus ATC (RADAR)
03:32AM -27.2458 152.2588 285° West 201 231 8,900  Level Aus ATC (RADAR)
03:33AM -27.1972 152.1913 309° West 180 207 8,900  Level Aus ATC (RADAR)
03:34AM -27.1959 152.2210 87° East 190 219 8,900 200 Level Aus ATC (RADAR)
03:34AM -27.2072 152.2468 116° Southeast 183 211 9,100 60 Climbing Aus ATC (RADAR)
03:36AM -27.2215 152.3105 104° East 181 208 9,000 -57 Descending Aus ATC (RADAR)
03:36AM -27.2262 152.3436 99° East 182 209 9,000 -48 Level Aus ATC (RADAR)
03:38AM -27.2450 152.4264 104° East 182 209 8,900 -55 Descending Aus ATC (RADAR)
03:38AM -27.2634 152.4306 169° South 185 213 8,900  Level Aus ATC (RADAR)
03:39AM -27.2840 152.3800 245° Southwest 217 250 8,900 63 Level Aus ATC (RADAR)
03:40AM -27.2704 152.3401 291° West 200 230 9,000 60 Climbing Aus ATC (RADAR)
03:41AM -27.2518 152.2800 289° West 200 230 9,000  Level Aus ATC (RADAR)
03:41AM -27.2308 152.2571 316° Northwest 191 220 9,000 63 Level Aus ATC (RADAR)
03:42AM -27.2138 152.3031 67° East 191 220 9,100 39 Climbing Aus ATC (RADAR)
03:44AM -27.2348 152.3901 105° East 181 208 9,100 -40 Level Aus ATC (RADAR)
03:45AM -27.2565 152.4306 121° Southeast 176 203 9,000 -71 Descending Aus ATC (RADAR)
03:45AM -27.2816 152.4139 211° Southwest 201 231 9,000  Level Aus ATC (RADAR)
03:46AM -27.2822 152.3762 269° West 209 241 9,000 86 Level Aus ATC (RADAR)
03:46AM -27.2718 152.3419 289° West 198 228 9,100  Climbing Aus ATC (RADAR)
03:47AM -27.2582 152.3027 291° West 199 229 9,000  Descending Aus ATC (RADAR)
03:48AM -27.2414 152.2603 294° West 195 224 9,100  Climbing Aus ATC (RADAR)
03:49AM -27.2147 152.2962 50° Northeast 193 222 9,000 -58 Descending Aus ATC (RADAR)
03:50AM -27.2265 152.3411 106° East 178 205 9,000  Level Aus ATC (RADAR)
03:50AM -27.2328 152.3729 103° East 175 201 9,000 92 Level Aus ATC (RADAR)
03:51AM -27.2364 152.4003 98° East 174 200 9,100 -80 Climbing Aus ATC (RADAR)
03:51AM -27.2587 152.4296 131° Southeast 181 208 8,900 -75 Descending Aus ATC (RADAR)
03:52AM -27.2817 152.4015 227° Southwest 209 241 9,000 92 Climbing Aus ATC (RADAR)
03:52AM -27.2768 152.3694 280° West 207 238 9,000  Level Aus ATC (RADAR)
03:54AM -27.2470 152.2488 286° West 197 227 9,000  Level Aus ATC (RADAR)
03:55AM -27.2351 152.1936 284° West 194 223 9,000  Level Aus ATC (RADAR)
03:56AM -27.2317 152.1677 279° West 198 228 9,000 -60 Level Aus ATC (RADAR)
03:57AM -27.1959 152.1805 18° North 183 211 8,900 63 Descending Aus ATC (RADAR)
03:57AM -27.2017 152.1999 109° East 191 220 9,100 133 Climbing Aus ATC (RADAR)
03:59AM -27.2143 152.2749 101° East 212 244 9,100 -40 Level Aus ATC (RADAR)
04:00AM -27.2308 152.3639 102° East 215 247 9,000 -42 Descending Aus ATC (RADAR)
04:01AM -27.2428 152.4352 101° East 210 242 9,000  Level Aus ATC (RADAR)
04:01AM -27.2479 152.4625 102° East 210 242 9,000 -282 Level Aus ATC (RADAR)
04:02AM -27.2808 152.5191 123° Southeast 214 246 8,600 -480 Descending Aus ATC (RADAR)
04:03AM -27.3041 152.5572 125° Southeast 217 250 8,200 -600 Descending Aus ATC (RADAR)
04:05AM -27.3715 152.6810 122° Southeast 230 265 7,000 -633 Descending Aus ATC (RADAR)
04:06AM -27.4083 152.7422 124° Southeast 231 266 6,300 -667 Descending Aus ATC (RADAR)
04:07AM -27.4260 152.7728 123° Southeast 228 262 6,000 -686 Descending Aus ATC (RADAR)
04:08AM -27.4643 152.8401 123° Southeast 183 211 5,100 -771 Descending Aus ATC (RADAR)
04:08AM -27.4796 152.8666 123° Southeast 168 193 4,600 -865 Descending Aus ATC (RADAR)
04:10AM -27.5091 152.9246 120° Southeast 181 208 3,600 -727 Descending Aus ATC (RADAR)
04:11AM -27.5577 152.9979 127° Southeast 176 203 2,600 -455 Descending Aus ATC (RADAR)
04:12AM -27.5400 153.0341 61° Northeast 155 178 2,500 -86 Descending Aus ATC (RADAR)
04:12AM -27.5307 153.0461 49° Northeast 152 175 2,500 -300 Level Aus ATC (RADAR)
04:13AM -27.5061 153.0586 24° Northeast 147 169 2,200 -660 Descending Aus ATC (RADAR)
04:14AM -27.4707 153.0795 28° Northeast 140 161 1,400 -695 Descending Aus ATC (RADAR)
04:15AM -27.4559 153.0882 28° Northeast 106 122 1,100 -471 Descending Aus ATC (RADAR)
04:16AM -27.4154 153.1110 27° Northeast 92 106 300 -457 Descending Aus ATC (RADAR)